Location: Dyersburg
(36.0438°N, 89.3789°W)
Time: 01:23:24
(UTC+00:00)

Transit 2A - All Passes

Search period start: 23 February 2020 00:00
Search period end: 04 March 2020 00:00
Orbit: 600 x 959 km, 66.7° (Epoch: 22 February)

Date Brightness Start Highest point End Pass type
(mag) Time Alt. Az. Time Alt. Az. Time Alt. Az.
23 Feb - 03:41:59 10° NNW 03:47:06 54° ENE 03:52:44 10° SE visible
23 Feb - 05:26:15 10° WNW 05:29:58 19° WSW 05:33:55 10° SSW night (unlit)
23 Feb - 18:20:10 10° SSW 18:24:29 78° ESE 18:28:51 10° NNE daylight
23 Feb - 20:07:44 10° NW 20:08:13 10° NW 20:08:41 10° NW daylight
24 Feb - 03:08:05 10° N 03:12:55 36° ENE 03:18:10 10° SE visible
24 Feb - 04:51:25 10° NW 04:55:59 28° WSW 05:00:53 10° SSW night (unlit)
24 Feb - 17:46:16 10° S 17:50:25 46° ESE 17:54:36 10° NE daylight
24 Feb - 19:31:12 10° W 19:33:49 15° NW 19:36:27 10° NNW daylight
25 Feb - 02:34:21 10° N 02:38:40 26° NE 02:43:20 10° ESE visible
25 Feb - 04:16:54 10° NW 04:21:56 43° WSW 04:27:25 10° S night (unlit)
25 Feb - 17:12:43 10° SSE 17:16:25 28° ESE 17:20:07 10° NE daylight
25 Feb - 18:56:02 10° WSW 18:59:29 23° NW 19:03:01 10° N daylight
26 Feb - 02:00:48 10° N 02:04:21 18° NE 02:08:07 10° E visible
26 Feb - 03:42:35 10° NW 03:47:51 64° WSW 03:53:39 10° SSE visible
26 Feb - 16:39:37 10° SSE 16:42:27 17° ESE 16:45:17 10° ENE daylight
26 Feb - 18:21:15 10° SW 18:25:14 35° WNW 18:29:17 10° N daylight
27 Feb - 01:27:43 10° NNE 01:29:59 13° NE 01:32:18 10° ENE visible
27 Feb - 03:08:26 10° NNW 03:13:45 86° ENE 03:19:37 10° SSE visible
27 Feb - 04:54:52 10° W 04:56:23 11° WSW 04:57:56 10° WSW night (unlit)
27 Feb - 16:08:15 10° ESE 16:08:31 10° ESE 16:08:48 10° E daylight
27 Feb - 17:46:47 10° SW 17:51:02 57° WNW 17:55:22 10° NNE daylight
28 Feb - 02:34:22 10° NNW 02:39:36 59° ENE 02:45:21 10° SE visible
28 Feb - 04:18:52 10° WNW 04:22:26 18° WSW 04:26:11 10° SSW visible
28 Feb - 17:12:34 10° SSW 17:16:54 86° ESE 17:21:18 10° NNE daylight
29 Feb - 02:00:27 10° NNW 02:05:25 40° ENE 02:10:50 10° SE visible
29 Feb - 03:43:57 10° NW 03:48:26 27° WSW 03:53:15 10° SSW visible
29 Feb - 16:38:38 10° S 16:42:50 51° ESE 16:47:05 10° NE daylight
29 Feb - 18:23:56 10° W 18:26:18 14° NW 18:28:42 10° NNW daylight
01 Mar - 01:26:40 10° N 01:31:10 28° NE 01:36:03 10° ESE visible
01 Mar - 03:09:23 10° NW 03:14:24 39° WSW 03:19:51 10° S visible
01 Mar - 16:05:00 10° S 16:08:48 31° ESE 16:12:39 10° NE daylight
01 Mar - 17:48:37 10° WSW 17:51:57 21° NW 17:55:21 10° N daylight
02 Mar - 00:53:03 10° N 00:56:53 20° NE 01:00:56 10° E visible
02 Mar - 02:35:02 10° NW 02:40:19 59° WSW 02:46:08 10° SSE visible
02 Mar - 15:31:47 10° SSE 15:34:50 19° ESE 15:37:54 10° ENE daylight
02 Mar - 17:13:47 10° WSW 17:17:40 32° NW 17:21:39 10° N daylight
03 Mar - 00:19:48 10° NNE 00:22:30 14° NE 00:25:20 10° E visible
03 Mar - 02:00:50 10° NNW 02:06:14 87° WSW 02:12:09 10° SSE visible
03 Mar - 03:48:24 10° W 03:48:49 10° WSW 03:49:14 10° WSW visible
03 Mar - 14:59:31 10° ESE 15:00:54 11° ESE 15:02:18 10° E daylight
03 Mar - 16:39:15 10° SW 16:43:27 51° WNW 16:47:46 10° NNE daylight
